"2009-04-02 00:00:00",763537,15.27,58.23,3.752,0.637,4.261,98.47802,-4.577,-3.429,90.8,0,109.3,13.68,-3.84,20.2
"2009-04-02 00:00:30",763538,15.3,56.66,3.905,0.776,4.258,98.49076,-4.545,-3.404,90.5,0,109.3,13.68,-3.81,18.7
"2009-04-02 00:01:00",763539,15.33,55.31,3.485,0.74,4.322,98.49531,-4.533,-3.38,90.1,0,109.3,13.69,-3.80,17.3
"2009-04-02 00:01:30",763540,15.62,54.77,3.092,0.649,4.548,98.49643,-4.53,-3.364,89.7,0,109.3,13.69,-3.79,16.8
"2009-04-02 00:02:00",763541,15.58,55.32,3.279,0.723,4.353,98.51173,-4.492,-3.352,89.2,0,109.3,13.69,-3.76,17.3
"2009-04-02 00:02:30",763542,15.32,56.81,3.32,0.711,4.375,98.52988,-4.445,-3.332,88.6,0,109.3,13.69,-3.71,18.8
"2009-04-02 00:03:00",763543,15.59,56.07,3.439,0.729,4.455,98.5347,-4.433,-3.311,88.1,0,109.3,13.69,-3.70,18.1
"2009-04-02 00:03:30",763544,15.55,56.69,1.203,0.692,4.339,98.55,-4.394,-3.283,87.7,0,109.3,13.69,-3.66,18.7
"2009-04-02 00:04:00",763545,15.37,55.7,3.82,0.735,4.413,98.56332,-4.36,-3.254,87.2,0,109.3,13.69,-3.62,17.7
"2009-04-02 00:04:30",763546,15.14,55.73,2.868,0.8,4.337,98.56587,-4.354,-3.242,86.7,0,109.3,13.69,-3.62,17.7
"2009-04-02 00:05:00",763547,15.35,56.94,3.083,0.764,4.347,98.57975,-4.318,-3.212,86.2,0,109.3,13.69,-3.58,18.9
"2009-04-02 00:05:30",763548,15.19,56.84,3.812,0.634,4.629,98.59789,-4.272,-3.163,85.8,0,109.3,13.69,-3.54,18.8
"2009-04-02 00:06:00",763549,15.13,55.75,2.201,0.839,4.299,98.60158,-4.263,-3.159,85.3,0,109.3,13.69,-3.53,17.8
"2009-04-02 00:06:30",763550,15.17,56.22,3.554,0.712,4.411,98.61264,-4.235,-3.125,84.6,0,109.3,13.69,-3.50,18.2
"2009-04-02 00:07:00",763551,14.92,56.77,3.429,0.783,4.298,98.62965,-4.191,-3.091,84.1,0,109.3,13.69,-3.45,18.8
"2009-04-02 00:07:30",763552,15.31,55.61,3.105,0.664,4.652,98.63135,-4.187,-3.061,83.7,0,109.3,13.69,-3.45,17.6
"2009-04-02 00:08:00",763553,15.24,55.86,3.251,0.733,4.498,98.64438,-4.154,-3.05,82.9,0,109.3,13.69,-3.42,17.9
"2009-04-02 00:08:30",763554,15.14,55.74,3.568,0.772,4.477,98.6628,-4.107,-2.999,82,0,109.3,13.69,-3.37,17.7
"2009-04-02 00:09:00",763555,14.79,57.4,2.823,0.824,4.175,98.66734,-4.095,-2.99,81.5,0,109.3,13.69,-3.36,19.4
"2009-04-02 00:09:30",763556,14.75,57.38,2.819,0.716,4.294,98.68092,-4.061,-2.951,81.7,0,109.3,13.69,-3.32,19.4
"2009-04-02 00:10:00",763557,14.66,55.83,3.826,0.778,4.268,98.68661,-4.046,-2.911,82,0,109.3,13.69,-3.31,17.8
"2009-04-02 00:10:30",763558,14.85,56.4,3.555,0.669,4.234,98.69852,-4.016,-2.881,81.9,0,109.3,13.69,-3.28,18.4
"2009-04-02 00:11:00",763559,14.61,57.32,4,0.722,4.387,98.69964,-4.013,-2.873,81.6,0,109.3,13.69,-3.28,19.3
"2009-04-02 00:11:30",763560,13.96,58.68,2.413,0.722,4.166,98.69936,-4.014,-2.851,81.3,0,109.3,13.68,-3.28,20.7
"2009-04-02 00:12:00",763561,13.66,57.65,3.013,0.868,4.119,98.69993,-4.012,-2.837,81.1,0,109.3,13.68,-3.27,19.7
"2009-04-02 00:12:30",763562,13.78,58.66,3.524,0.792,4.005,98.70048,-4.011,-2.816,81.3,0,109.3,13.68,-3.27,20.7
"2009-04-02 00:13:00",763563,13.39,58.44,3.77,0.851,4.012,98.70135,-4.009,-2.8,81.8,0,109.3,13.68,-3.27,20.4
"2009-04-02 00:13:30",763564,12.63,56.3,3.59,1.016,4.198,98.70219,-4.006,-2.786,82,0,109.3,13.68,-3.27,18.3
"2009-04-02 00:14:00",763565,11.91,60.29,3.237,0.871,3.869,98.70219,-4.006,-2.771,82.1,0,109.3,13.68,-3.27,22.3
"2009-04-02 00:14:30",763566,13.21,57.16,4.751,0.812,4.039,98.70504,-3.999,-2.756,82.3,0,109.3,13.68,-3.26,19.2
"2009-04-02 00:15:00",763567,13.49,52.36,3.596,0.994,4.009,98.70673,-3.995,-2.762,82.3,0,109.3,13.68,-3.26,14.4
"2009-04-02 00:15:30",763568,13.66,54.85,2.726,0.885,4.009,98.70589,-3.997,-2.756,82.2,0,109.3,13.68,-3.26,16.8
"2009-04-02 00:16:00",763569,12.56,57.74,6.035,1.332,3.933,98.70815,-3.991,-2.736,82.2,0,109.3,13.68,-3.25,19.7
"2009-04-02 00:16:30",763570,12.87,57.84,5.016,1.016,3.956,98.71184,-3.982,-2.75,82.3,0,109.3,13.69,-3.24,19.8
"2009-04-02 00:17:00",763571,12.96,61.68,4.045,1.145,3.775,98.71326,-3.978,-2.746,82.3,0,109.3,13.69,-3.24,23.7
"2009-04-02 00:17:30",763572,13.16,58.13,4.533,0.828,4.108,98.71608,-3.971,-2.72,82.4,0,109.3,13.69,-3.23,20.1
"2009-04-02 00:18:00",763573,13.89,55.9,2.967,0.813,3.996,98.71581,-3.972,-2.74,82.4,0,109.3,13.69,-3.23,17.9
"2009-04-02 00:18:30",763574,13.26,56.49,3.248,0.934,3.989,98.7141,-3.976,-2.748,81.7,0,109.3,13.69,-3.24,18.5
"2009-04-02 00:19:00",763575,13.62,55.63,4.385,0.93,4.096,98.71665,-3.97,-2.723,81.1,0,109.3,13.69,-3.23,17.6
"2009-04-02 00:19:30",763576,13.26,57.45,3.171,0.834,4.186,98.72487,-3.949,-2.717,81.1,0,109.3,13.69,-3.21,19.5
"2009-04-02 00:20:00",763577,14.72,55.18,3.338,0.82,4.133,98.73252,-3.929,-2.732,80.8,0,109.3,13.69,-3.19,17.2
"2009-04-02 00:20:30",763578,12.46,60.6,4.854,1.151,4.023,98.73506,-3.923,-2.72,79.98,0,109.3,13.69,-3.18,22.6
"2009-04-02 00:21:00",763579,11.4,57.53,4.27,0.84,4.032,98.73338,-3.927,-2.713,79.96,0,109.3,13.69,-3.19,19.5
"2009-04-02 00:21:30",763580,12.4,57.22,4.773,0.813,4.079,98.73338,-3.927,-2.698,80.1,0,109.3,13.69,-3.19,19.2
"2009-04-02 00:22:00",763581,13.74,56.22,3.205,0.854,4.004,98.73338,-3.927,-2.682,79.92,0,109.3,13.69,-3.19,18.2
"2009-04-02 00:22:30",763582,14.2,55.53,3.162,0.761,4.088,98.73422,-3.925,-2.688,79.27,0,109.3,13.69,-3.19,17.5
"2009-04-02 00:23:00",763583,14.24,54.3,2.913,0.825,4.117,98.74046,-3.909,-2.682,78.4,0,109.3,13.69,-3.17,16.3
"2009-04-02 00:23:30",763584,14.22,58.25,3.47,0.816,4.268,98.74841,-3.889,-2.689,77.62,0,109.3,13.69,-3.15,20.2
"2009-04-02 00:24:00",763585,14.22,55.34,3.718,0.81,4.219,98.75831,-3.864,-2.689,77.18,0,109.3,13.69,-3.13,17.3
"2009-04-02 00:24:30",763586,13.56,56.42,4.124,0.948,4.239,98.76682,-3.842,-2.66,77.16,0,109.3,13.69,-3.10,18.4
"2009-04-02 00:25:00",763587,14.14,54.98,2.718,0.763,4.267,98.76711,-3.841,-2.635,77.32,0,109.3,13.69,-3.10,17.0
"2009-04-02 00:25:30",763588,14.65,54.67,3.538,0.661,4.371,98.76683,-3.842,-2.646,76.6,0,109.3,13.69,-3.10,16.7
"2009-04-02 00:26:00",763589,14.27,55.01,3.677,0.782,4.367,98.76683,-3.842,-2.63,75.88,0,109.3,13.69,-3.10,17.0
"2009-04-02 00:26:30",763590,14.12,56.8,3.732,0.793,4.423,98.76711,-3.841,-2.615,75.48,0,109.3,13.69,-3.10,18.8
"2009-04-02 00:27:00",763591,14.49,55.84,3.541,0.727,4.446,98.77193,-3.829,-2.613,75.15,0,109.3,13.69,-3.09,17.8
"2009-04-02 00:27:30",763592,14.34,55.33,2.548,0.701,4.379,98.781,-3.806,-2.588,74.95,0,109.3,13.69,-3.07,17.3
"2009-04-02 00:28:00",763593,14.47,54.89,3.451,0.736,4.41,98.79121,-3.78,-2.58,74.64,0,109.3,13.69,-3.04,16.9
"2009-04-02 00:28:30",763594,14.67,54.94,2.762,0.731,4.421,98.80055,-3.756,-2.584,74.06,0,109.3,13.68,-3.02,16.9
"2009-04-02 00:29:00",763595,14.53,57.11,2.836,0.802,4.366,98.80083,-3.755,-2.569,73.61,0,109.3,13.68,-3.02,19.1
"2009-04-02 00:29:30",763596,14.81,55.53,3.305,0.709,4.615,98.80112,-3.755,-2.538,73.28,0,109.3,13.68,-3.02,17.5
"2009-04-02 00:30:00",763597,14.63,55.18,3.022,0.77,4.358,98.80112,-3.755,-2.558,73.02,0,109.3,13.68,-3.02,17.2
"2009-04-02 00:30:30",763598,14.87,55.39,3.558,0.846,4.475,98.80197,-3.752,-2.536,72.78,0,109.3,13.68,-3.01,17.4
"2009-04-02 00:31:00",763599,14.57,58.45,3.494,0.745,4.428,98.80624,-3.742,-2.534,72.96,0,109.3,13.68,-3.00,20.5
"2009-04-02 00:31:30",763600,14.56,56.18,3.499,0.736,4.619,98.81275,-3.725,-2.517,73.18,0,109.3,13.68,-2.99,18.2
"2009-04-02 00:32:00",763601,14.24,55.08,3.415,0.737,4.505,98.81841,-3.71,-2.517,72.94,0,109.3,13.68,-2.97,17.1
"2009-04-02 00:32:30",763602,14.24,55.26,3.157,0.737,4.464,98.82464,-3.695,-2.487,72.77,0,109.3,13.69,-2.96,17.3
"2009-04-02 00:33:00",763603,14.38,56.78,3.419,0.803,4.513,98.83457,-3.669,-2.465,72.8,0,109.3,13.69,-2.93,18.8
"2009-04-02 00:33:30",763604,14.83,57.6,3.4,0.777,4.581,98.83485,-3.669,-2.485,72.77,0,109.3,13.69,-2.93,19.6
"2009-04-02 00:34:00",763605,14.18,55.4,2.684,0.817,4.427,98.83485,-3.669,-2.47,72.92,0,109.3,13.69,-2.93,17.4
"2009-04-02 00:34:30",763606,13.86,58.94,3.077,0.903,4.378,98.83513,-3.668,-2.462,72.84,0,109.3,13.69,-2.93,20.9
"2009-04-02 00:35:00",763607,13.92,59.41,2.966,0.731,4.298,98.83373,-3.671,-2.463,72.95,0,109.3,13.69,-2.93,21.4
"2009-04-02 00:35:30",763608,13.5,57.03,3.073,0.632,4.492,98.8343,-3.67,-2.451,73.01,0,109.3,13.69,-2.93,19.0
"2009-04-02 00:36:00",763609,13.3,55.95,2.96,0.905,4.343,98.83401,-3.671,-2.452,73.06,0,109.3,13.69,-2.93,18.0
"2009-04-02 00:36:30",763610,12.24,58.7,4.126,0.749,4.357,98.83401,-3.671,-2.436,73.36,0,109.3,13.69,-2.93,20.7
"2009-04-02 00:37:00",763611,11.26,60.34,3.977,0.765,4.229,98.8343,-3.67,-2.442,73.87,0,109.3,13.69,-2.93,22.3
"2009-04-02 00:37:30",763612,13.59,54.97,2.61,0.962,4.337,98.83289,-3.674,-2.423,74.3,0,109.3,13.69,-2.93,17.0
"2009-04-02 00:38:00",763613,13.45,56.16,3.501,0.737,4.243,98.83289,-3.674,-2.419,73.92,0,109.3,13.69,-2.93,18.2
"2009-04-02 00:38:30",763614,13.23,54.45,3.852,0.811,4.239,98.83373,-3.671,-2.421,73.57,0,109.3,13.69,-2.93,16.5
"2009-04-02 00:39:00",763615,13.5,55.48,3.204,0.858,4.143,98.83457,-3.669,-2.427,73.43,0,109.3,13.69,-2.93,17.5
"2009-04-02 00:39:30",763616,13.79,57.21,2.846,0.709,4.304,98.83345,-3.672,-2.428,73.34,0,109.3,13.69,-2.93,19.2
"2009-04-02 00:40:00",763617,13.72,58.07,3.124,0.792,4.142,98.83373,-3.671,-2.432,72.99,0,109.3,13.69,-2.93,20.1
"2009-04-02 00:40:30",763618,13.83,56.34,2.922,0.897,4.24,98.8343,-3.67,-2.418,72.61,0,109.3,13.69,-2.93,18.3
"2009-04-02 00:41:00",763619,13.26,52.06,3.112,0.817,4.249,98.83261,-3.674,-2.431,72.61,0,109.3,13.69,-2.94,14.1
"2009-04-02 00:41:30",763620,13.43,57.08,2.148,0.763,4.277,98.83373,-3.671,-2.436,72.56,0,109.3,13.69,-2.93,19.1
"2009-04-02 00:42:00",763621,13.49,55.42,3.48,0.753,4.344,98.83317,-3.673,-2.415,72.32,0,109.3,13.69,-2.93,17.4
"2009-04-02 00:42:30",763622,13.13,53.64,3.147,0.808,4.233,98.83401,-3.671,-2.412,72.24,0,109.3,13.69,-2.93,15.6
"2009-04-02 00:43:00",763623,13.44,53.35,2.538,0.821,4.392,98.83457,-3.669,-2.415,72.18,0,109.3,13.69,-2.93,15.3
"2009-04-02 00:43:30",763624,13.29,54.61,2.257,0.826,4.34,98.83401,-3.671,-2.411,72.18,0,109.3,13.69,-2.93,16.6
"2009-04-02 00:44:00",763625,13.22,55.26,3.962,0.774,4.282,98.83401,-3.671,-2.407,72.09,0,109.3,13.69,-2.93,17.3
"2009-04-02 00:44:30",763626,13.64,55.58,2.739,0.767,4.27,98.8343,-3.67,-2.426,71.92,0,109.3,13.69,-2.93,17.6
"2009-04-02 00:45:00",763627,13.28,55.51,3.758,0.784,4.33,98.8343,-3.67,-2.403,71.79,0,109.3,13.69,-2.93,17.5
"2009-04-02 00:45:30",763628,12.91,58.3,2.261,0.777,4.334,98.83627,-3.665,-2.401,71.84,0,109.3,13.68,-2.93,20.3
"2009-04-02 00:46:00",763629,12.06,57.86,3.7,1.019,4.309,98.83599,-3.666,-2.374,72.1,0,109.3,13.69,-2.93,19.9
"2009-04-02 00:46:30",763630,11.59,57.24,3.65,0.821,4.23,98.83826,-3.66,-2.395,72.47,0,109.3,13.68,-2.92,19.2
"2009-04-02 00:47:00",763631,12.51,56.97,3.705,0.754,4.249,98.83628,-3.665,-2.386,72.81,0,109.3,13.68,-2.93,19.0
"2009-04-02 00:47:30",763632,12.21,56.76,3.46,0.98,4.164,98.83599,-3.666,-2.397,72.66,0,109.3,13.68,-2.93,18.8
"2009-04-02 00:48:00",763633,12.79,57.21,3.201,0.83,4.054,98.83485,-3.669,-2.383,72.57,0,109.3,13.69,-2.93,19.2
"2009-04-02 00:48:30",763634,13,53.55,3.251,0.732,4.135,98.83345,-3.672,-2.391,72.39,0,109.3,13.69,-2.93,15.5
"2009-04-02 00:49:00",763635,12.46,54.89,2.58,0.924,4.085,98.83345,-3.672,-2.399,72.29,0,109.3,13.69,-2.93,16.9
"2009-04-02 00:49:30",763636,12.45,54.78,3.408,0.747,4.177,98.8343,-3.67,-2.394,72.4,0,109.3,13.69,-2.93,16.8
"2009-04-02 00:50:00",763637,12.1,57.18,4.251,0.795,4.139,98.83345,-3.672,-2.383,72.6,0,109.3,13.69,-2.93,19.2
"2009-04-02 00:50:30",763638,12.48,52.69,2.931,0.849,4.057,98.83401,-3.671,-2.402,72.89,0,109.3,13.69,-2.93,14.7
"2009-04-02 00:51:00",763639,12.71,55.18,2.942,0.817,4.024,98.83401,-3.671,-2.384,73,0,109.3,13.69,-2.93,17.2
"2009-04-02 00:51:30",763640,12.41,52.17,3.456,0.59,4.32,98.83317,-3.673,-2.408,72.99,0,109.3,13.69,-2.93,14.2
"2009-04-02 00:52:00",763641,11.76,56.71,4.143,0.962,3.967,98.83289,-3.674,-2.395,72.86,0,109.3,13.69,-2.93,18.7
"2009-04-02 00:52:30",763642,12.91,55.57,2.958,0.802,4.089,98.83401,-3.671,-2.4,72.91,0,109.3,13.69,-2.93,17.6
"2009-04-02 00:53:00",763643,12.24,55.2,3.249,0.801,4.142,98.83401,-3.671,-2.4,72.82,0,109.3,13.69,-2.93,17.2
"2009-04-02 00:53:30",763644,12.45,53.62,2.59,0.694,4.25,98.83373,-3.671,-2.409,72.89,0,109.3,13.69,-2.93,15.6
"2009-04-02 00:54:00",763645,12.32,52.01,3.056,0.888,4.119,98.83261,-3.674,-2.402,72.99,0,109.3,13.69,-2.94,14.0
"2009-04-02 00:54:30",763646,12.04,54.31,4.191,0.997,4.061,98.83317,-3.673,-2.389,72.92,0,109.3,13.69,-2.93,16.3
"2009-04-02 00:55:00",763647,11.45,52.62,3.8,0.692,4.091,98.83345,-3.672,-2.409,73.08,0,109.3,13.69,-2.93,14.6
"2009-04-02 00:55:30",763648,11.25,54.18,2.808,0.614,3.992,98.83345,-3.672,-2.409,73.24,0,109.3,13.69,-2.93,16.2
"2009-04-02 00:56:00",763649,11.3,52.99,3.402,0.974,4.048,98.83345,-3.672,-2.402,73.35,0,109.3,13.69,-2.93,15.0
"2009-04-02 00:56:30",763650,12.08,52.81,4.076,0.842,3.959,98.83289,-3.674,-2.397,73.4,0,109.3,13.69,-2.93,14.8
"2009-04-02 00:57:00",763651,11.84,53.74,2.883,0.877,3.901,98.83317,-3.673,-2.402,73.3,0,109.3,13.69,-2.93,15.7
"2009-04-02 00:57:30",763652,12.19,52.72,2.979,0.849,4.145,98.83401,-3.671,-2.406,73.19,0,109.3,13.69,-2.93,14.7
"2009-04-02 00:58:00",763653,12.42,49.3,2.699,0.845,4.005,98.83457,-3.669,-2.421,72.73,0,109.3,13.69,-2.93,11.3
"2009-04-02 00:58:30",763654,12.53,52.21,3.984,0.739,3.971,98.83373,-3.671,-2.437,72.46,0,109.3,13.69,-2.93,14.2
"2009-04-02 00:59:00",763655,12,50.55,3.014,0.706,3.971,98.83513,-3.668,-2.418,72.38,0,109.3,13.69,-2.93,12.5
"2009-04-02 00:59:30",763656,12,51.73,2.909,0.727,4.16,98.83457,-3.669,-2.426,72.64,0,109.3,13.69,-2.93,13.7
"2009-04-02 01:00:00",763657,11.8,53.12,3.284,0.808,4.102,98.83485,-3.669,-2.409,72.71,0,109.3,13.69,-2.93,15.1
"2009-04-02 01:00:30",763658,11.22,53.61,3.851,0.843,3.957,98.8343,-3.67,-2.418,72.65,0,109.3,13.69,-2.93,15.6
"2009-04-02 01:01:00",763659,11.03,52.58,3.236,0.828,3.969,98.83485,-3.669,-2.423,72.78,0,109.3,13.69,-2.93,14.6
"2009-04-02 01:01:30",763660,11.44,53.96,4.097,0.558,3.948,98.83428,-3.67,-2.431,72.88,0,109.3,13.69,-2.93,16.0
"2009-04-02 01:02:00",763661,11.26,54.74,2.478,0.773,3.798,98.83345,-3.672,-2.432,73.05,0,109.3,13.69,-2.93,16.7
"2009-04-02 01:02:30",763662,11.59,51.35,4.016,0.751,3.829,98.82919,-3.683,-2.446,73.07,0,109.3,13.69,-2.94,13.3
"2009-04-02 01:03:00",763663,11.45,55.67,3.114,0.846,3.848,98.82748,-3.687,-2.428,73.13,0,109.3,13.69,-2.95,17.7
"2009-04-02 01:03:30",763664,12.09,54.81,2.722,0.754,3.991,98.82266,-3.7,-2.436,73.25,0,109.3,13.7,-2.96,16.8
"2009-04-02 01:04:00",763665,11.78,54.32,3.591,0.831,3.917,98.8221,-3.701,-2.455,73.26,0,109.3,13.7,-2.96,16.3
"2009-04-02 01:04:30",763666,11.57,56.66,3.064,0.787,3.822,98.82153,-3.703,-2.435,73.29,0,109.3,13.69,-2.96,18.7
"2009-04-02 01:05:00",763667,11.63,55.3,2.776,0.813,3.837,98.82125,-3.703,-2.459,73.33,0,109.3,13.7,-2.96,17.3
"2009-04-02 01:05:30",763668,11.89,53.15,3.321,0.49,4.092,98.82266,-3.7,-2.454,73.26,0,109.3,13.7,-2.96,15.2
"2009-04-02 01:06:00",763669,11.64,54.06,3.107,0.803,3.86,98.82181,-3.702,-2.459,73.17,0,109.3,13.7,-2.96,16.1
"2009-04-02 01:06:30",763670,11.68,52.03,3.685,0.672,3.982,98.82633,-3.69,-2.461,73.06,0,109.3,13.7,-2.95,14.0
"2009-04-02 01:07:00",763671,11.23,48.35,3.278,0.861,4.02,98.8269,-3.689,-2.451,72.97,0,109.3,13.7,-2.95,10.3
"2009-04-02 01:07:30",763672,11.57,52.8,3.429,0.818,4.039,98.82861,-3.685,-2.459,72.72,0,109.3,13.7,-2.95,14.8
"2009-04-02 01:08:00",763673,12.03,52.29,3.071,0.706,3.906,98.82945,-3.682,-2.448,72.69,0,109.3,13.7,-2.94,14.3
"2009-04-02 01:08:30",763674,12.34,52.09,3.597,0.576,4.114,98.83116,-3.678,-2.444,72.53,0,109.3,13.7,-2.94,14.1
"2009-04-02 01:09:00",763675,12.36,54.61,3.129,0.723,3.95,98.83287,-3.674,-2.454,72.31,0,109.3,13.7,-2.93,16.6
"2009-04-02 01:09:30",763676,12.21,56.15,2.724,0.745,4.122,98.83513,-3.668,-2.461,72.31,0,109.3,13.7,-2.93,18.2
"2009-04-02 01:10:00",763677,11.87,54.98,4.449,0.766,4.051,98.83457,-3.669,-2.458,72.26,0,109.3,13.69,-2.93,17.0
"2009-04-02 01:10:30",763678,11.65,53.85,3.027,0.877,4.073,98.83513,-3.668,-2.434,72.28,0,109.3,13.7,-2.93,15.8
"2009-04-02 01:11:00",763679,11.48,53.79,3.101,0.845,4.029,98.83541,-3.667,-2.434,72.3,0,109.3,13.7,-2.93,15.8
"2009-04-02 01:11:30",763680,11.88,50.56,3.426,0.75,4.229,98.83541,-3.667,-2.425,72.33,0,109.3,13.7,-2.93,12.6
"2009-04-02 01:12:00",763681,11.89,51.65,3.229,0.926,4.048,98.83541,-3.667,-2.445,72.29,0,109.3,13.7,-2.93,13.7
"2009-04-02 01:12:30",763682,12.17,48.36,3.58,0.827,4.042,98.83513,-3.668,-2.432,72.13,0,109.3,13.7,-2.93,10.4
"2009-04-02 01:13:00",763683,11.65,52.04,2.75,0.747,3.959,98.83541,-3.667,-2.445,71.95,0,109.3,13.7,-2.93,14.0
"2009-04-02 01:13:30",763684,11.64,51.41,3.606,0.474,4.153,98.83513,-3.668,-2.444,71.9,0,109.3,13.7,-2.93,13.4
"2009-04-02 01:14:00",763685,11.56,52.95,3.08,0.822,3.971,98.83541,-3.667,-2.419,71.98,0,109.3,13.7,-2.93,15.0
"2009-04-02 01:14:30",763686,11.28,50.41,2.322,0.838,3.911,98.83569,-3.666,-2.437,72.15,0,109.3,13.7,-2.93,12.4
"2009-04-02 01:15:00",763687,11.86,53.91,3.353,0.598,3.788,98.83597,-3.666,-2.444,72.17,0,109.3,13.7,-2.93,15.9
"2009-04-02 01:15:30",763688,11.94,53.12,3.957,0.459,4.126,98.83541,-3.667,-2.44,72.29,0,109.3,13.7,-2.93,15.1
"2009-04-02 01:16:00",763689,11.96,54.2,2.685,0.816,4.004,98.83569,-3.666,-2.436,72.3,0,109.3,13.7,-2.93,16.2
"2009-04-02 01:16:30",763690,12.09,53.32,3.539,0.684,4.015,98.83597,-3.666,-2.421,72.28,0,109.3,13.69,-2.93,15.3
"2009-04-02 01:17:00",763691,11.97,49.68,2.713,0.723,4.026,98.83541,-3.667,-2.431,72.17,0,109.3,13.69,-2.93,11.7
"2009-04-02 01:17:30",763692,11.39,50.84,2.768,0.778,4.258,98.83653,-3.664,-2.418,72.03,0,109.3,13.69,-2.93,12.8
"2009-04-02 01:18:00",763693,11.57,50.85,3.259,0.835,4.059,98.83653,-3.664,-2.419,71.96,0,109.3,13.69,-2.93,12.8
"2009-04-02 01:18:30",763694,10.27,45.49,4.044,1.095,4.138,98.83653,-3.664,-2.417,71.88,0,109.3,13.69,-2.93,7.5
"2009-04-02 01:19:00",763695,11.42,49.05,3.391,0.721,3.946,98.83737,-3.662,-2.421,71.77,0,109.3,13.69,-2.92,11.0
"2009-04-02 01:19:30",763696,11.24,46.38,3.095,1.038,4.167,98.83709,-3.663,-2.409,71.7,0,109.3,13.69,-2.92,8.4
"2009-04-02 01:20:00",763697,11.6,47.97,4.063,0.638,4.086,98.83793,-3.661,-2.41,71.62,0,109.3,13.69,-2.92,10.0
"2009-04-02 01:20:30",763698,11.47,48.66,4.106,0.564,4.048,98.83681,-3.664,-2.412,71.58,0,109.3,13.69,-2.92,10.7
"2009-04-02 01:21:00",763699,11.45,48.12,4.355,0.73,4.008,98.83765,-3.661,-2.41,71.45,0,109.3,13.69,-2.92,10.1
"2009-04-02 01:21:30",763700,11.39,49.73,2.753,0.742,4.059,98.83737,-3.662,-2.402,71.47,0,109.3,13.69,-2.92,11.7
"2009-04-02 01:22:00",763701,11.05,50.71,3.46,0.715,3.933,98.83709,-3.663,-2.402,71.44,0,109.3,13.7,-2.92,12.7
"2009-04-02 01:22:30",763702,11.31,49.63,2.251,0.868,3.878,98.83681,-3.664,-2.401,71.57,0,109.3,13.7,-2.92,11.6
"2009-04-02 01:23:00",763703,10.36,46.73,3.423,1.095,3.879,98.83681,-3.664,-2.4,71.71,0,109.3,13.7,-2.92,8.7
"2009-04-02 01:23:30",763704,9.28,43.18,2.501,0.838,3.994,98.83569,-3.666,-2.386,71.64,0,109.3,13.7,-2.93,5.2
"2009-04-02 01:24:00",763705,11.1,46.1,3.114,1.26,3.719,98.83709,-3.663,-2.393,71.17,0,109.3,13.7,-2.92,8.1
"2009-04-02 01:24:30",763706,11.83,46.97,3.008,0.944,3.782,98.83709,-3.663,-2.391,70.73,0,109.3,13.7,-2.92,9.0
"2009-04-02 01:25:00",763707,10.69,47.61,3.945,0.901,3.811,98.83597,-3.666,-2.391,70.63,0,109.3,13.7,-2.93,9.6
"2009-04-02 01:25:30",763708,9.87,43.37,3.743,1.21,3.928,98.83597,-3.666,-2.39,70.91,0,109.3,13.7,-2.93,5.4
"2009-04-02 01:26:00",763709,10.05,47.62,4.555,0.8,3.676,98.83569,-3.666,-2.403,70.9,0,109.3,13.7,-2.93,9.6
"2009-04-02 01:26:30",763710,9.9,47.18,4.668,1.016,3.76,98.83709,-3.663,-2.377,71.34,0,109.3,13.7,-2.92,9.2
"2009-04-02 01:27:00",763711,10.47,46.07,3.861,1.192,3.629,98.83569,-3.666,-2.4,71.81,0,109.3,13.7,-2.93,8.1
"2009-04-02 01:27:30",763712,11,44.53,3.853,1.469,3.922,98.83681,-3.664,-2.4,71.46,0,109.3,13.7,-2.92,6.5
"2009-04-02 01:28:00",763713,11.24,48.68,3.987,0.598,3.717,98.83681,-3.664,-2.417,70.85,0,109.3,13.7,-2.92,10.7
"2009-04-02 01:28:30",763714,10.26,49.54,3.993,0.78,3.626,98.83849,-3.659,-2.403,70.93,0,109.3,13.7,-2.92,11.5
"2009-04-02 01:29:00",763715,12.37,49.98,3.815,1.372,3.696,98.83822,-3.66,-2.416,71.3,0,109.3,13.7,-2.92,12.0
"2009-04-02 01:29:30",763716,12.59,50,2.699,0.799,3.939,98.8382,-3.66,-2.421,70.69,0,109.3,13.7,-2.92,12.0
"2009-04-02 01:30:00",763717,13.13,48.72,3.921,0.787,3.936,98.83395,-3.671,-2.421,70.03,0,109.3,13.7,-2.93,10.7
"2009-04-02 01:30:30",763718,13,46.84,3.34,0.701,4.158,98.83281,-3.674,-2.427,69.31,0,109.3,13.7,-2.93,8.8
"2009-04-02 01:31:00",763719,12.64,47.51,3.291,0.621,4.223,98.83817,-3.66,-2.434,69.03,0,109.3,13.7,-2.92,9.5
"2009-04-02 01:31:30",763720,13.06,49.49,3.747,0.363,4.401,98.83592,-3.666,-2.453,68.83,0,109.3,13.7,-2.93,11.5
"2009-04-02 01:32:00",763721,12.92,49.23,3.847,0.522,4.266,98.83791,-3.661,-2.457,68.7,0,109.3,13.7,-2.92,11.2
"2009-04-02 01:32:30",763722,12.52,49.01,3.593,0.541,4.28,98.83932,-3.657,-2.434,68.68,0,109.3,13.7,-2.92,11.0
"2009-04-02 01:33:00",763723,12.51,50.53,2.804,0.669,4.183,98.84101,-3.653,-2.44,68.72,0,109.3,13.7,-2.91,12.5
"2009-04-02 01:33:30",763724,12.62,50.74,2.513,0.637,4.262,98.84102,-3.653,-2.459,68.69,0,109.3,13.7,-2.91,12.7
"2009-04-02 01:34:00",763725,12.73,50.22,4.107,0.371,4.433,98.84017,-3.655,-2.443,68.5,0,109.3,13.69,-2.92,12.2
"2009-04-02 01:34:30",763726,12.59,48.74,3.79,0.551,4.271,98.84073,-3.654,-2.433,68.43,0,109.3,13.69,-2.91,10.7
"2009-04-02 01:35:00",763727,12.51,48.41,3.999,0.569,4.257,98.84073,-3.654,-2.462,68.37,0,109.3,13.69,-2.91,10.4
"2009-04-02 01:35:30",763728,12.43,48.29,2.906,0.638,4.301,98.84101,-3.653,-2.455,68.41,0,109.3,13.69,-2.91,10.3
"2009-04-02 01:36:00",763729,12.54,48.58,3.267,0.656,4.202,98.84017,-3.655,-2.45,68.28,0,109.3,13.69,-2.92,10.6
"2009-04-02 01:36:30",763730,12.17,48.44,3.794,0.519,4.318,98.841,-3.653,-2.44,68.25,0,109.3,13.69,-2.91,10.4
"2009-04-02 01:37:00",763731,12.17,48.97,3.106,0.654,4.146,98.84129,-3.652,-2.443,68.37,0,109.3,13.69,-2.91,11.0
"2009-04-02 01:37:30",763732,12.52,48.43,3.153,0.537,4.288,98.83704,-3.663,-2.446,68.36,0,109.3,13.7,-2.92,10.4
"2009-04-02 01:38:00",763733,12.44,48.29,1.997,0.713,4.059,98.82996,-3.681,-2.44,68.19,0,109.3,13.7,-2.94,10.3
"2009-04-02 01:38:30",763734,12.35,48.36,3.921,0.556,4.054,98.82457,-3.695,-2.452,68.08,0,109.3,13.7,-2.96,10.4
"2009-04-02 01:39:00",763735,12.15,49.4,3.747,0.601,4.172,98.82287,-3.699,-2.454,68.32,0,109.3,13.7,-2.96,11.4
"2009-04-02 01:39:30",763736,11.95,50.56,3.608,0.411,4.29,98.81808,-3.711,-2.463,68.59,0,109.3,13.7,-2.97,12.6
"2009-04-02 01:40:00",763737,11.98,50.92,3.961,0.545,4.17,98.81578,-3.717,-2.452,68.78,0,109.3,13.7,-2.98,12.9
"2009-04-02 01:40:30",763738,11.78,52.09,2.772,0.783,4.001,98.81154,-3.728,-2.446,69.06,0,109.3,13.7,-2.99,14.1
"2009-04-02 01:41:00",763739,11.97,51.03,2.91,0.744,3.977,98.8084,-3.736,-2.449,69.13,0,109.3,13.7,-3.00,13.0
"2009-04-02 01:41:30",763740,11.84,52.83,3.11,0.497,4.15,98.80812,-3.737,-2.451,69.21,0,109.3,13.7,-3.00,14.8
"2009-04-02 01:42:00",763741,11.63,53.2,3.51,0.616,4.048,98.80869,-3.735,-2.474,69.52,0,109.3,13.7,-3.00,15.2
"2009-04-02 01:42:30",763742,11.82,51.09,3.607,0.555,4.158,98.80784,-3.737,-2.458,69.73,0,109.3,13.7,-3.00,13.1
"2009-04-02 01:43:00",763743,11.66,50.11,3.879,0.587,3.906,98.80756,-3.738,-2.479,69.66,0,109.3,13.7,-3.00,12.1
"2009-04-02 01:43:30",763744,11.94,49.94,3.022,0.684,4.145,98.80784,-3.737,-2.479,69.66,0,109.3,13.7,-3.00,11.9
"2009-04-02 01:44:00",763745,12.12,50.66,3.896,0.671,3.986,98.80923,-3.734,-2.488,69.36,0,109.3,13.7,-3.00,12.7
"2009-04-02 01:44:30",763746,12.12,50.33,3.438,0.668,4.046,98.80896,-3.735,-2.475,68.96,0,109.3,13.7,-3.00,12.3
"2009-04-02 01:45:00",763747,12.02,50.9,3.885,0.856,3.999,98.80811,-3.737,-2.497,68.69,0,109.3,13.7,-3.00,12.9
"2009-04-02 01:45:30",763748,12.09,52.1,3.351,0.624,4.152,98.80413,-3.747,-2.516,68.6,0,109.3,13.7,-3.01,14.1
"2009-04-02 01:46:00",763749,12.37,49.99,4.027,0.498,4.109,98.79819,-3.762,-2.511,68.3,0,109.3,13.7,-3.02,12.0
"2009-04-02 01:46:30",763750,12.12,49.62,4.674,0.736,4.089,98.79393,-3.773,-2.502,68.19,0,109.3,13.7,-3.03,11.6
"2009-04-02 01:47:00",763751,12.89,50.12,3.477,0.666,4.106,98.79167,-3.779,-2.517,68.32,0,109.3,13.7,-3.04,12.1